Location: Rucker Burdett Airport
(38.1875°N, 99.5340°W)
Time: 06:28:58
(UTC+00:00)

Daily predictions for brighter satellites

Satellite Brightness Start Highest point End
(mag) Time Altitude Azimuth Time Altitude Azimuth Time Altitude Azimuth
Cosmos 841 Rocket 3.8 12:01:55 10° S 12:07:00 68° ESE 12:12:07 10° NNE
Cosmos 1898 Rocket 3.5 12:04:49 16° NNW 12:09:00 84° ENE 12:14:10 10° SSE
FALCON 9 R/B 3.3 12:08:09 19° SW 12:09:42 21° SSW 12:12:21 10° SSE
Cosmos 2237 Rocket 2.4 12:05:12 10° SSW 12:10:49 75° ESE 12:16:31 10° NNE
Cosmos 2333 Rocket 3.0 12:13:27 29° NW 12:13:27 29° NW 12:17:49 10° N
deb Chang Zheng 4 3.5 12:09:18 10° N 12:13:28 56° WNW 12:17:35 10° SSW
GPS 2-04 Rocket1 3.6 12:13:17 33° SW 12:14:11 38° SSW 12:18:03 10° SE
ATLAS CENTAUR R/B 4.0 12:11:49 10° SSE 12:14:30 19° ESE 12:17:08 10° ENE
Cosmos 1570 Rocket 4.3 12:11:18 10° S 12:16:27 68° ESE 12:21:39 10° NNE
Cosmos 2219 Rocket 2.9 12:17:16 30° WNW 12:17:17 30° WNW 12:22:10 10° N
Cosmos 2034 Rocket 4.0 12:11:55 10° S 12:18:17 89° E 12:24:41 10° N
YAOGAN 6 2.8 12:19:44 10° NNE 12:23:26 72° E 12:27:06 10° S
Cosmos 1953 2.1 12:19:48 10° SSW 12:23:47 75° W 12:27:46 10° N
FALCON 9 DEB 3.1 12:25:36 44° W 12:26:21 57° NW 12:29:43 10° NE
Nadezhda 4 Rocket 3.9 12:25:36 10° N 12:31:45 88° W 12:37:51 10° S
PSLV R/B 3.8 12:28:04 10° S 12:32:07 70° WSW 12:36:15 10° NNW
COSMOS 2428 3.6 12:30:54 23° W 12:32:43 28° WNW 12:37:33 10° N
Cosmos 1461 3.7 12:30:57 24° WSW 12:33:07 36° NW 12:37:31 10° NNE
Cosmos 1892 Rocket 4.1 12:31:19 22° NW 12:33:27 34° W 12:37:24 10° SSW
Cosmos 2208 Rocket 4.2 12:29:54 10° SSW 12:35:21 83° ESE 12:40:49 10° NNE
GEOS 3 Rocket 3.7 12:30:11 10° SSE 12:35:29 69° WSW 12:40:17 13° NW
ERS-2 2.5 12:32:14 10° S 12:35:40 39° W 12:37:40 21° NW
Cosmos 1908 3.0 12:32:15 10° S 12:36:02 84° W 12:39:52 10° N
Meteor PRIRODA 4.3 12:35:20 10° N 12:38:34 31° WNW 12:41:46 10° SW
CENTAUR R/B 4.4 12:34:27 10° S 12:39:17 30° ESE 12:44:46 10° NE
USA 305 4.4 12:36:31 10° SSW 12:40:25 37° SE 12:44:21 10° ENE
Cosmos 1814 Rocket 3.9 12:37:44 10° SSW 12:42:52 77° WNW 12:48:01 10° NNE
Cosmos 1980 3.8 12:37:59 10° SW 12:43:31 54° WNW 12:49:04 10° NNE
COSMO-SKYMED 1 3.5 12:41:05 10° SSW 12:44:44 26° W 12:47:20 16° NW
Cosmos 1937 Rocket 3.5 12:39:35 10° NNW 12:44:49 64° WSW 12:49:58 10° S
Cosmos 921 Rocket 4.1 12:43:59 20° W 12:44:53 22° WNW 12:48:12 10° NNW
Cosmos 372 Rocket 4.3 12:43:55 10° NNW 12:49:10 70° ENE 12:54:23 10° SSE
Envisat 3.0 12:44:21 10° N 12:49:22 61° WNW 12:54:21 10° SSW
NOAA 6 4.0 12:46:06 10° NNE 12:51:18 83° WNW 12:56:29 10° SSW
SJ 16-02 3.2 12:52:18 12° WSW 12:52:18 12° WSW 12:53:33 10° WSW
Meteor 2-13 Rocket 4.5 12:45:44 10° NNW 12:51:47 60° W 12:57:48 10° S
USA 306 3.9 12:48:04 10° SSW 12:52:09 48° SE 12:56:15 10° ENE
SWAS 4.4 12:48:10 10° SSW 12:52:24 87° ESE 12:56:42 10° NNE
CZ-4B DEB 4.2 12:55:12 10° N 13:00:45 71° WNW 13:06:16 10° SSW
CZ-4B R/B 4.2 13:00:33 10° NNW 13:02:40 15° WNW 13:04:49 10° WSW
CZ-2C R/B 2.2 13:00:06 10° WSW 13:03:59 42° S 13:07:37 10° E
IUS R/B (1) 4.4 13:05:28 10° S 13:06:05 11° SSE 13:06:44 10° SSE
USA 276 4.3 13:05:16 10° WSW 13:06:47 13° SW 13:08:18 10° SSW
Cosmos 2026 Rocket 4.2 13:02:37 10° N 13:09:00 85° E 13:15:23 10° S
Lacrosse 4 Rocket 1.3 13:07:05 10° SSW 13:11:15 75° WNW 13:15:34 10° NNE
Cosmos 1703 3.6 13:07:59 10° NNW 13:11:42 44° W 13:15:24 10° SSW
Cosmos 1340 3.0 13:11:30 10° NNW 13:15:06 44° W 13:18:40 10° SSW
Cosmos 1346 Rocket 3.3 13:12:31 10° N 13:16:28 64° E 13:20:24 10° SSE
Cosmos 1606 Rocket 3.9 13:13:03 10° S 13:17:19 72° E 13:21:38 10° NNE
Cosmos 540 Rocket 4.4 13:14:18 10° WSW 13:18:26 24° WNW 13:22:36 10° N
Cosmos 1689 Rocket 4.0 13:17:38 10° WSW 13:19:00 13° W 13:20:22 10° WNW
Lacrosse 5 rocket 1.8 13:16:40 10° NNW 13:20:24 49° NE 13:23:57 10° ESE
Cosmos 1939 Rocket 3.3 13:18:26 10° NNE 13:22:22 67° ESE 13:26:11 10° S
BREEZE M DEB (TANK) 2.2 13:21:07 10° W 13:23:13 40° NNW 13:27:03 10° NE
Cosmos 44 Rocket 3.9 13:21:09 10° NW 13:26:04 43° WSW 13:30:57 10° S
